FW1542 Weather Reports


Display with metric or nautical units.
time (UTC)temp
F
wind
direction
speed
MPH
gust
MPH
rain 1hr
in
rain 24hr
in
rain mn
in
humidity
%
barometer
mb
20260905063100 81 155 3.0 10.0 0.00 0.00 0.00 83 1013.5
20260905063001 81 97 3.0 9.0 0.00 0.00 0.00 84 1015.1
20260905061622 81 158 4.0 11.0 0.00 0.00 0.00 83 1015.1
20260905061620 81 111 3.0 11.0 0.00 0.00 0.00 83 1013.5
20260905060116 81 121 5.0 12.0 0.00 0.00 0.00 82 1015.2
20260905054557 82 140 3.0 10.0 0.00 0.00 0.00 81 1015.1
20260905054551 82 148 5.0 10.0 0.00 0.00 0.00 80 1013.6
20260905053059 82 133 3.0 10.0 0.00 0.00 0.00 79 1013.6
20260905053056 82 132 3.0 10.0 0.00 0.00 0.00 79 1015.2
20260905051556 83 119 4.0 9.0 0.00 0.00 0.00 76 1013.6
20260905051552 83 120 4.0 9.0 0.00 0.00 0.00 77 1015.3
20260905050056 83 132 5.0 12.0 0.00 0.00 0.00 74 1013.5
20260905050049 83 136 3.0 11.0 0.00 0.00 0.00 75 1015.1
20260905044553 84 140 3.0 9.0 0.00 0.00 0.00 72 1013.5
20260905044548 84 148 3.0 7.0 0.00 0.00 0.00 72 1015.1
20260905043047 84 174 4.0 10.0 0.00 0.00 0.00 70 1015.2
20260905041601 84 123 6.0 11.0 0.00 0.00 0.00 68 1013.5
20260905041556 84 182 5.0 11.0 0.00 0.00 0.00 69 1015.2
20260905040053 85 148 6.0 13.0 0.00 0.00 0.00 67 1013.4
20260905040046 85 90 6.0 11.0 0.00 0.00 0.00 68 1015.1
20260905034610 85 109 5.0 13.0 0.00 0.00 0.00 67 1013.4
20260905034554 85 146 5.0 13.0 0.00 0.00 0.00 68 1015.1
20260905033105 85 147 5.0 13.0 0.00 0.00 0.00 68 1013.2
20260905033045 85 122 6.0 13.0 0.00 0.00 0.00 68 1014.9
20260905031616 85 107 7.0 13.0 0.00 0.00 0.00 68 1012.9
20260905031545 85 105 6.0 13.0 0.00 0.00 0.00 68 1014.9
20260905030058 85 147 5.0 14.0 0.00 0.00 0.00 67 1012.9
20260905030045 85 98 5.0 14.0 0.00 0.00 0.00 68 1014.8
20260905024600 85 117 4.0 12.0 0.00 0.00 0.00 67 1012.6
20260905024545 85 122 6.0 12.0 0.00 0.00 0.00 68 1014.5
20260905023144 85 111 6.0 12.0 0.00 0.00 0.00 67 1014.3
20260905023055 85 102 6.0 12.0 0.00 0.00 0.00 66 1012.3
20260905021558 85 105 4.0 11.0 0.00 0.00 0.00 66 1012.2
20260905021550 85 112 3.0 11.0 0.00 0.00 0.00 67 1014.1
20260905020058 85 93 4.0 11.0 0.00 0.00 0.00 67 1012.0
20260905020043 85 86 3.0 11.0 0.00 0.00 0.00 68 1013.8
20260905014557 84 54 3.0 7.0 0.00 0.00 0.00 69 1011.9
20260905014542 84 73 3.0 7.0 0.00 0.00 0.00 69 1013.7
20260905013101 85 91 2.0 5.0 0.00 0.00 0.00 69 1011.8
20260905013041 85 90 2.0 5.0 0.00 0.00 0.00 69 1013.6
20260905011601 85 80 2.0 4.0 0.00 0.00 0.00 68 1011.7
20260905011544 85 81 2.0 4.0 0.00 0.00 0.00 69 1013.3
20260905010105 86 71 1.0 3.0 0.00 0.00 0.00 67 1011.8
20260905010040 86 71 1.0 3.0 0.00 0.00 0.00 68 1013.5
20260905004606 86 45 1.0 5.0 0.00 0.00 0.00 67 1011.7
20260905004546 86 45 1.0 5.0 0.00 0.00 0.00 67 1013.4
20260905003104 87 71 2.0 4.0 0.00 0.00 0.00 66 1011.6
20260905003039 87 71 1.0 4.0 0.00 0.00 0.00 67 1013.3
20260905001605 87 0 1.0 4.0 0.00 0.00 0.00 65 1011.6
20260905001549 87 85 1.0 3.0 0.00 0.00 0.00 66 1013.2
20260905000111 88 94 4.0 9.0 0.00 0.00 0.00 65 1011.3
20260905000039 88 94 3.0 9.0 0.00 0.00 0.00 65 1013.0
20260904234556 88 102 4.0 9.0 0.00 0.00 0.00 65 1011.3
20260904234541 88 80 4.0 9.0 0.00 0.00 0.00 65 1013.0
20260904233114 88 82 5.0 10.0 0.00 0.00 0.00 65 1011.2
20260904233043 88 71 5.0 10.0 0.00 0.00 0.00 65 1012.8
20260904231606 88 84 6.0 13.0 0.00 0.00 0.00 64 1011.0
20260904231545 88 92 5.0 13.0 0.00 0.00 0.00 65 1012.8
20260904230105 89 76 5.0 10.0 0.00 0.00 0.00 65 1011.3
20260904230035 89 79 4.0 10.0 0.00 0.00 0.00 65 1013.0
20260904224557 89 26 5.0 10.0 0.00 0.00 0.00 64 1011.4
20260904224545 89 23 4.0 10.0 0.00 0.00 0.00 65 1013.0
20260904223119 89 27 3.0 10.0 0.00 0.00 0.00 62 1011.6
20260904223033 89 37 4.0 10.0 0.00 0.00 0.00 62 1013.3
20260904221558 88 89 5.0 10.0 0.00 0.00 0.00 64 1011.8
20260904221530 88 89 4.0 10.0 0.00 0.00 0.00 65 1013.4
20260904220058 87 94 4.0 9.0 0.00 0.00 0.00 70 1012.0
20260904220030 87 76 3.0 9.0 0.00 0.00 0.00 70 1013.5
20260904214602 86 55 2.0 9.0 0.00 0.00 0.00 75 1012.1
20260904214528 86 51 2.0 9.0 0.00 0.00 0.00 75 1013.7
20260904213055 86 107 3.0 7.0 0.00 0.00 0.00 78 1012.2
20260904213028 86 104 3.0 6.0 0.00 0.00 0.00 79 1013.9
20260904211552 86 99 3.0 9.0 0.00 0.00 0.00 78 1012.4
20260904211525 86 80 2.0 9.0 0.00 0.00 0.00 79 1014.1
20260904210125 86 99 2.0 7.0 0.00 0.00 0.00 76 1012.4
20260904210024 86 103 3.0 6.0 0.00 0.00 0.00 76 1014.1
20260904204601 86 97 2.0 7.0 0.00 0.00 0.00 76 1012.5
20260904204525 86 93 3.0 6.0 0.00 0.00 0.00 76 1014.4
20260904203104 88 96 1.0 5.0 0.00 0.00 0.00 74 1012.8
20260904203023 88 96 1.0 5.0 0.00 0.00 0.00 75 1014.5
20260904201551 89 136 3.0 9.0 0.00 0.00 0.00 69 1012.8
20260904201522 89 111 2.0 9.0 0.00 0.00 0.00 69 1014.5
20260904200055 89 61 4.0 11.0 0.00 0.00 0.00 67 1012.8
20260904200023 89 96 4.0 11.0 0.00 0.00 0.00 68 1014.5
20260904194556 89 98 4.0 10.0 0.00 0.00 0.00 67 1012.9
20260904194521 89 106 3.0 10.0 0.00 0.00 0.00 68 1014.6
20260904193113 89 102 2.0 9.0 0.00 0.00 0.00 65 1013.0
20260904193020 89 90 2.0 9.0 0.00 0.00 0.00 66 1014.7
20260904191557 89 136 3.0 8.0 0.00 0.00 0.00 65 1013.1
20260904191524 89 128 3.0 8.0 0.00 0.00 0.00 66 1014.7
20260904190049 89 108 2.0 7.0 0.00 0.00 0.00 66 1013.2
20260904190031 89 100 2.0 6.0 0.00 0.00 0.00 67 1014.8
20260904184556 89 88 3.0 9.0 0.00 0.00 0.00 66 1013.2
20260904184519 89 130 2.0 8.0 0.00 0.00 0.00 66 1014.9
20260904183053 90 130 3.0 8.0 0.00 0.00 0.00 66 1013.5
20260904183023 90 117 3.0 8.0 0.00 0.00 0.00 67 1015.1
20260904181551 89 161 3.0 9.0 0.00 0.00 0.00 67 1013.5
20260904181527 89 128 4.0 8.0 0.00 0.00 0.00 68 1015.2
20260904180014 89 171 2.0 7.0 0.00 0.00 0.00 69 1015.2
20260904174613 88 159 1.0 8.0 0.00 0.00 0.00 69 1015.5
20260904174553 88 121 2.0 9.0 0.00 0.00 0.00 69 1013.9
20260904173056 88 142 4.0 9.0 0.00 0.00 0.00 70 1014.2
20260904173019 88 120 4.0 9.0 0.00 0.00 0.00 70 1015.6
20260904171558 87 188 4.0 8.0 0.00 0.00 0.00 71 1014.4
20260904171512 87 151 4.0 7.0 0.00 0.00 0.00 72 1015.8
20260904170101 87 138 3.0 9.0 0.00 0.00 0.00 72 1014.6
20260904170007 87 132 3.0 9.0 0.00 0.00 0.00 73 1016.0
20260904164553 87 150 2.0 7.0 0.00 0.00 0.00 73 1014.7
20260904164504 87 119 3.0 7.0 0.00 0.00 0.00 74 1016.1
20260904163052 86 105 3.0 7.0 0.00 0.00 0.00 75 1014.8
20260904163002 86 105 4.0 7.0 0.00 0.00 0.00 75 1016.1
20260904161610 86 145 3.0 8.0 0.00 0.00 0.00 76 1016.1
20260904154555 84 164 2.0 6.0 0.00 0.00 0.00 80 1016.0
20260904154552 84 183 1.0 7.0 0.00 0.00 0.00 80 1014.6
20260904153051 83 153 3.0 6.0 0.00 0.00 0.00 81 1016.0
20260904151558 83 229 2.0 9.0 0.00 0.00 0.00 83 1014.4
20260904151550 83 215 3.0 7.0 0.00 0.00 0.00 83 1015.8
20260904150056 82 128 3.0 8.0 0.00 0.00 0.00 85 1014.3
20260904150046 82 128 3.0 7.0 0.00 0.00 0.00 85 1015.7
20260904144609 81 110 3.0 13.0 0.00 0.00 0.00 85 1014.2
20260904144604 81 175 3.0 13.0 0.00 0.00 0.00 86 1015.8
20260904143103 81 59 5.0 11.0 0.00 0.00 0.00 86 1014.2
20260904143056 81 157 5.0 10.0 0.00 0.00 0.00 87 1015.9
20260904141559 81 145 4.0 12.0 0.00 0.00 0.00 87 1014.2
20260904141531 81 145 5.0 11.0 0.00 0.00 0.00 88 1015.9
20260904140058 80 171 3.0 11.0 0.00 0.00 0.00 88 1014.1
20260904140032 80 170 4.0 11.0 0.00 0.00 0.00 89 1015.8
20260904134602 80 139 3.0 11.0 0.00 0.00 0.00 89 1014.1
20260904134529 80 142 3.0 10.0 0.00 0.00 0.00 89 1015.7
20260904133105 79 111 3.0 10.0 0.00 0.00 0.00 89 1014.0
20260904133027 79 113 2.0 10.0 0.00 0.00 0.00 90 1015.6
20260904131556 79 134 6.0 12.0 0.00 0.00 0.00 89 1013.8
20260904131525 79 128 6.0 12.0 0.00 0.00 0.00 90 1015.3
20260904130058 79 157 3.0 8.0 0.00 0.00 0.00 89 1013.6
20260904130023 79 130 2.0 8.0 0.00 0.00 0.00 90 1015.1
20260904124602 79 129 2.0 8.0 0.00 0.00 0.00 89 1013.5
20260904124522 79 129 2.0 8.0 0.00 0.00 0.00 90 1015.0
20260904123056 79 174 2.0 9.0 0.00 0.00 0.00 89 1013.4
20260904123019 79 119 2.0 9.0 0.00 0.00 0.00 89 1014.8
20260904121553 79 138 3.0 10.0 0.00 0.00 0.00 89 1013.2
20260904121518 79 143 4.0 10.0 0.00 0.00 0.00 89 1014.6
20260904120056 79 115 2.0 9.0 0.00 0.00 0.00 89 1013.2
20260904120017 79 104 2.0 8.0 0.00 0.00 0.00 89 1014.5
20260904114557 79 139 3.0 8.0 0.00 0.00 0.00 88 1012.9
20260904114517 79 135 3.0 8.0 0.00 0.00 0.00 89 1014.5
20260904113054 79 0 2.0 9.0 0.00 0.00 0.00 88 1012.8
20260904113014 79 124 2.0 9.0 0.00 0.00 0.00 88 1014.4
20260904111553 79 155 1.0 5.0 0.00 0.00 0.00 88 1012.5
20260904111513 79 154 2.0 5.0 0.00 0.00 0.00 88 1014.1
20260904110101 79 176 0.0 4.0 0.00 0.00 0.00 87 1012.4
20260904110012 79 178 0.0 4.0 0.00 0.00 0.00 88 1014.0
20260904104555 79 0 2.0 8.0 0.00 0.00 0.00 87 1012.4
20260904104512 79 188 3.0 8.0 0.00 0.00 0.00 88 1014.1
20260904103103 80 0 1.0 9.0 0.00 0.00 0.00 87 1012.4
20260904103009 80 210 1.0 8.0 0.00 0.00 0.00 87 1014.2
20260904101554 80 146 1.0 8.0 0.00 0.00 0.00 86 1012.4
20260904101507 80 111 1.0 8.0 0.00 0.00 0.00 87 1014.1
20260904100056 80 197 4.0 11.0 0.00 0.00 0.00 86 1012.4
20260904100007 80 185 4.0 11.0 0.00 0.00 0.00 87 1014.2
20260904094556 80 167 3.0 12.0 0.00 0.00 0.00 86 1012.4
20260904094508 80 204 2.0 12.0 0.00 0.00 0.00 86 1014.1
20260904093055 80 156 3.0 10.0 0.00 0.00 0.00 86 1012.3
20260904093005 80 191 2.0 8.0 0.00 0.00 0.00 86 1014.0
20260904091557 80 169 3.0 10.0 0.00 0.00 0.00 86 1012.4
20260904091512 80 168 2.0 9.0 0.00 0.00 0.00 86 1014.1
20260904090049 80 133 4.0 9.0 0.00 0.00 0.00 85 1012.3
20260904090009 80 165 3.0 9.0 0.00 0.00 0.00 86 1014.1
20260904084602 80 149 4.0 11.0 0.00 0.00 0.00 85 1012.4
20260904084502 80 147 4.0 11.0 0.00 0.00 0.00 85 1014.1
20260904083103 80 126 4.0 10.0 0.00 0.00 0.00 85 1014.1
20260904081600 80 173 2.0 4.0 0.00 0.00 0.00 85 1014.2
20260904081555 80 0 2.0 6.0 0.00 0.00 0.00 84 1012.4
20260904080059 80 186 5.0 9.0 0.00 0.00 0.00 85 1014.1
20260904080048 80 153 3.0 12.0 0.00 0.00 0.00 84 1012.5
20260904074606 81 136 3.0 8.0 0.00 0.00 0.00 84 1014.3
20260904073055 81 143 3.0 10.0 0.00 0.00 0.00 84 1014.5
20260904071656 81 119 3.0 7.0 0.00 0.00 0.00 83 1014.7
20260904071623 81 152 2.0 11.0 0.00 0.00 0.00 83 1013.0
20260904070113 81 157 2.0 10.0 0.00 0.00 0.00 82 1012.8
20260904070106 81 187 2.0 9.0 0.00 0.00 0.00 83 1014.6
20260904064606 81 163 3.0 9.0 0.00 0.00 0.00 82 1012.8